Current weather by "City, St" or "zip code"  
 

Current Conditions: Elko, Elko Regional Airport, NV

Fair


27.0 F

Last Updated on Feb 25 2024, 4:56 am PST
Humidity: 85%
Wind Speed: N 0.0 mph
Barometer 30.08 in
Dewpoint: 23.0 F
Visibility: 10.00 mi
Precip: --
Heat Index: NA
Wind Chill: NA
Current conditions at:

Elko, Elko Regional Airport, NV (KEKO)

Lat: 40.82404 Lon: 115.78635

Local Radar Image active severe weather and emergency alerts image image weather storm and storm spotter reports image weather observation monitoring service image
Local
Radar
Active
Alerts
Storm Reports Obs
Monitoring

Sign-up For Email & Text Message Weather Alert Notification Services



Advertise Here

Observation History for Elko, Elko Regional Airport, NV


Time Wind
(mph)
Vis
(mi)
Weather Precip (in) Temperature (F) Relative
Humidity
Wind
Chill
(F)
Heat
Index
(F)
Pressure
Air Dwpt altimeter
(in)
sea level
(mb)
Rmks
4:56 am PST N 0.0 10.00 Fair -- 27.0 23.0 85% NA NA 30.08 1018.9
1:56 am PST N 0.0 10.00 Fair -- 28.0 24.1 85% NA NA 30.08 1018.9
12:56 am PST SW 3.5 10.00 Fair -- 27.0 23.0 85% NA NA 30.09 1019.5
10:56 pm PST N 0.0 10.00 Fair -- 31.0 26.1 82% NA NA 30.08 1019.5
8:56 pm PST N 0.0 10.00 Fair -- 32.0 27.0 82% NA NA 30.08 1020.3
6:56 pm PST N 0.0 10.00 Fair -- 37.0 28.9 73% NA NA 30.08 1020.5
4:56 pm PST W 4.6 10.00 Fair -- 51.0 27.0 39% 50 NA 30.08 1019.0
3:56 pm PST N 0.0 10.00 Fair -- 53.0 25.0 34% NA NA 30.08 1018.6
12:56 pm PST W 4.6 10.00 Fair -- 49.0 28.9 46% 47 NA 30.14 1020.9
10:56 am PST 3.5 10.00 Fair -- 43.0 28.0 56% NA NA 30.20 1023.5
9:56 am PST N 0.0 10.00 Fair -- 38.0 26.1 62% NA NA 30.22 1024.5
8:56 am PST E 3.5 10.00 Fair -- 33.0 25.0 72% NA NA 30.23 1025.1
7:56 am PST NE 4.6 10.00 Fair -- 28.0 23.0 81% 23 NA 30.23 1025.6

Regional Weather Observation


Winnemucca, Winnemucca Municipal Airport, NV (KWMC)

Fair
28.0 F

Wendover Airport, UT (KENV)

Fair
28.0 F

Eureka Airport AWOS, NV (K05U)

NULL
25.0 F

Eureka Airport AWOS, NV (K05U)

NULL
25.0 F

Joslin Field - Magic Valley Regional Airport, ID (KTWF)

Fair
39.0 F

Austin Airport, NV (KTMT)

Fair
23.0 F

Advertise Here


Advertise Here